<?xml version="1.0" encoding="utf-8"?>
<gpx xmlns:xsd="http://www.w3.org/2001/XMLSchema" xmlns:xsi="http://www.w3.org/2001/XMLSchema-instance" creator="eT4 META" version="1.1" xsi:schemaLocation="http://www.topografix.com/GPX/1/1 http://www.topografix.com/GPX/1/1/gpx.xsd" xmlns="http://www.topografix.com/GPX/1/1">
  <trk>
    <name>Stätten der Vorgeschichte und moderner Technik bei Wittesheim</name>
    <trkseg>
      <trkpt lat="48.865893" lon="10.903044">
        <ele>491.59</ele>
        <time>2026-09-01T00:00:00.0000000+00:00</time>
      </trkpt>
      <trkpt lat="48.86587" lon="10.902466">
        <ele>491.22</ele>
        <time>2026-09-01T00:00:00.0000000+00:00</time>
      </trkpt>
      <trkpt lat="48.865896" lon="10.901394">
        <ele>490.65</ele>
        <time>2026-09-01T00:00:00.0000000+00:00</time>
      </trkpt>
      <trkpt lat="48.865381" lon="10.901376">
        <ele>488.56</ele>
        <time>2026-09-01T00:00:00.0000000+00:00</time>
      </trkpt>
      <trkpt lat="48.865381" lon="10.901376">
        <ele>488.56</ele>
        <time>2026-09-01T00:00:00.0000000+00:00</time>
      </trkpt>
      <trkpt lat="48.865508" lon="10.899548">
        <ele>491.33</ele>
        <time>2026-09-01T00:00:00.0000000+00:00</time>
      </trkpt>
      <trkpt lat="48.865767" lon="10.897587">
        <ele>495.64</ele>
        <time>2026-09-01T00:00:00.0000000+00:00</time>
      </trkpt>
      <trkpt lat="48.866098" lon="10.896286">
        <ele>495.54</ele>
        <time>2026-09-01T00:00:00.0000000+00:00</time>
      </trkpt>
      <trkpt lat="48.864426" lon="10.896122">
        <ele>491.72</ele>
        <time>2026-09-01T00:00:00.0000000+00:00</time>
      </trkpt>
      <trkpt lat="48.864426" lon="10.896122">
        <ele>491.72</ele>
        <time>2026-09-01T00:00:00.0000000+00:00</time>
      </trkpt>
      <trkpt lat="48.86501" lon="10.89141">
        <ele>498.42</ele>
        <time>2026-09-01T00:00:00.0000000+00:00</time>
      </trkpt>
      <trkpt lat="48.864524" lon="10.89122">
        <ele>501.05</ele>
        <time>2026-09-01T00:00:00.0000000+00:00</time>
      </trkpt>
      <trkpt lat="48.864052" lon="10.890881">
        <ele>502.84</ele>
        <time>2026-09-01T00:00:00.0000000+00:00</time>
      </trkpt>
      <trkpt lat="48.863556" lon="10.890394">
        <ele>504.14</ele>
        <time>2026-09-01T00:00:00.0000000+00:00</time>
      </trkpt>
      <trkpt lat="48.863315" lon="10.890097">
        <ele>504.64</ele>
        <time>2026-09-01T00:00:00.0000000+00:00</time>
      </trkpt>
      <trkpt lat="48.863088" lon="10.889735">
        <ele>506.7</ele>
        <time>2026-09-01T00:00:00.0000000+00:00</time>
      </trkpt>
      <trkpt lat="48.86293" lon="10.889405">
        <ele>507.73</ele>
        <time>2026-09-01T00:00:00.0000000+00:00</time>
      </trkpt>
      <trkpt lat="48.862847" lon="10.88901">
        <ele>508.93</ele>
        <time>2026-09-01T00:00:00.0000000+00:00</time>
      </trkpt>
      <trkpt lat="48.862847" lon="10.88901">
        <ele>508.93</ele>
        <time>2026-09-01T00:00:00.0000000+00:00</time>
      </trkpt>
      <trkpt lat="48.862039" lon="10.887629">
        <ele>515.16</ele>
        <time>2026-09-01T00:00:00.0000000+00:00</time>
      </trkpt>
      <trkpt lat="48.861946" lon="10.887389">
        <ele>516.61</ele>
        <time>2026-09-01T00:00:00.0000000+00:00</time>
      </trkpt>
      <trkpt lat="48.861881" lon="10.887085">
        <ele>518.9</ele>
        <time>2026-09-01T00:00:00.0000000+00:00</time>
      </trkpt>
      <trkpt lat="48.861837" lon="10.886456">
        <ele>523.84</ele>
        <time>2026-09-01T00:00:00.0000000+00:00</time>
      </trkpt>
      <trkpt lat="48.861877" lon="10.88513">
        <ele>533.54</ele>
        <time>2026-09-01T00:00:00.0000000+00:00</time>
      </trkpt>
      <trkpt lat="48.861852" lon="10.884931">
        <ele>535.65</ele>
        <time>2026-09-01T00:00:00.0000000+00:00</time>
      </trkpt>
      <trkpt lat="48.860367" lon="10.885529">
        <ele>531.2</ele>
        <time>2026-09-01T00:00:00.0000000+00:00</time>
      </trkpt>
      <trkpt lat="48.859987" lon="10.885584">
        <ele>532.93</ele>
        <time>2026-09-01T00:00:00.0000000+00:00</time>
      </trkpt>
      <trkpt lat="48.859379" lon="10.885812">
        <ele>536.33</ele>
        <time>2026-09-01T00:00:00.0000000+00:00</time>
      </trkpt>
      <trkpt lat="48.859399" lon="10.885469">
        <ele>538.79</ele>
        <time>2026-09-01T00:00:00.0000000+00:00</time>
      </trkpt>
      <trkpt lat="48.860716" lon="10.879934">
        <ele>562.77</ele>
        <time>2026-09-01T00:00:00.0000000+00:00</time>
      </trkpt>
      <trkpt lat="48.861493" lon="10.87687">
        <ele>562.53</ele>
        <time>2026-09-01T00:00:00.0000000+00:00</time>
      </trkpt>
      <trkpt lat="48.862304" lon="10.876823">
        <ele>555.77</ele>
        <time>2026-09-01T00:00:00.0000000+00:00</time>
      </trkpt>
      <trkpt lat="48.863511" lon="10.876587">
        <ele>550.79</ele>
        <time>2026-09-01T00:00:00.0000000+00:00</time>
      </trkpt>
      <trkpt lat="48.864126" lon="10.876632">
        <ele>547.56</ele>
        <time>2026-09-01T00:00:00.0000000+00:00</time>
      </trkpt>
      <trkpt lat="48.864375" lon="10.876718">
        <ele>545.82</ele>
        <time>2026-09-01T00:00:00.0000000+00:00</time>
      </trkpt>
      <trkpt lat="48.864872" lon="10.877134">
        <ele>541.9</ele>
        <time>2026-09-01T00:00:00.0000000+00:00</time>
      </trkpt>
      <trkpt lat="48.865202" lon="10.877709">
        <ele>539.16</ele>
        <time>2026-09-01T00:00:00.0000000+00:00</time>
      </trkpt>
      <trkpt lat="48.865897" lon="10.879444">
        <ele>523.15</ele>
        <time>2026-09-01T00:00:00.0000000+00:00</time>
      </trkpt>
      <trkpt lat="48.866297" lon="10.880285">
        <ele>513.05</ele>
        <time>2026-09-01T00:00:00.0000000+00:00</time>
      </trkpt>
      <trkpt lat="48.866708" lon="10.881004">
        <ele>505.39</ele>
        <time>2026-09-01T00:00:00.0000000+00:00</time>
      </trkpt>
      <trkpt lat="48.867234" lon="10.881791">
        <ele>505.73</ele>
        <time>2026-09-01T00:00:00.0000000+00:00</time>
      </trkpt>
      <trkpt lat="48.867739" lon="10.882378">
        <ele>510.86</ele>
        <time>2026-09-01T00:00:00.0000000+00:00</time>
      </trkpt>
      <trkpt lat="48.867876" lon="10.880958">
        <ele>513.76</ele>
        <time>2026-09-01T00:00:00.0000000+00:00</time>
      </trkpt>
      <trkpt lat="48.868015" lon="10.880144">
        <ele>516.29</ele>
        <time>2026-09-01T00:00:00.0000000+00:00</time>
      </trkpt>
      <trkpt lat="48.868234" lon="10.879348">
        <ele>519.16</ele>
        <time>2026-09-01T00:00:00.0000000+00:00</time>
      </trkpt>
      <trkpt lat="48.868322" lon="10.879188">
        <ele>520.49</ele>
        <time>2026-09-01T00:00:00.0000000+00:00</time>
      </trkpt>
      <trkpt lat="48.868486" lon="10.879429">
        <ele>523.19</ele>
        <time>2026-09-01T00:00:00.0000000+00:00</time>
      </trkpt>
      <trkpt lat="48.868588" lon="10.879499">
        <ele>524.94</ele>
        <time>2026-09-01T00:00:00.0000000+00:00</time>
      </trkpt>
      <trkpt lat="48.869399" lon="10.879602">
        <ele>536.11</ele>
        <time>2026-09-01T00:00:00.0000000+00:00</time>
      </trkpt>
      <trkpt lat="48.87014" lon="10.87974">
        <ele>538.36</ele>
        <time>2026-09-01T00:00:00.0000000+00:00</time>
      </trkpt>
      <trkpt lat="48.873815" lon="10.878773">
        <ele>555.67</ele>
        <time>2026-09-01T00:00:00.0000000+00:00</time>
      </trkpt>
      <trkpt lat="48.874351" lon="10.880321">
        <ele>554.53</ele>
        <time>2026-09-01T00:00:00.0000000+00:00</time>
      </trkpt>
      <trkpt lat="48.875496" lon="10.883228">
        <ele>556.11</ele>
        <time>2026-09-01T00:00:00.0000000+00:00</time>
      </trkpt>
      <trkpt lat="48.875535" lon="10.883425">
        <ele>556.15</ele>
        <time>2026-09-01T00:00:00.0000000+00:00</time>
      </trkpt>
      <trkpt lat="48.875524" lon="10.884743">
        <ele>555.04</ele>
        <time>2026-09-01T00:00:00.0000000+00:00</time>
      </trkpt>
      <trkpt lat="48.875847" lon="10.891691">
        <ele>553.91</ele>
        <time>2026-09-01T00:00:00.0000000+00:00</time>
      </trkpt>
      <trkpt lat="48.876154" lon="10.896672">
        <ele>547.89</ele>
        <time>2026-09-01T00:00:00.0000000+00:00</time>
      </trkpt>
      <trkpt lat="48.876388" lon="10.898759">
        <ele>528.74</ele>
        <time>2026-09-01T00:00:00.0000000+00:00</time>
      </trkpt>
      <trkpt lat="48.876487" lon="10.900123">
        <ele>528.46</ele>
        <time>2026-09-01T00:00:00.0000000+00:00</time>
      </trkpt>
      <trkpt lat="48.87708" lon="10.900186">
        <ele>534.81</ele>
        <time>2026-09-01T00:00:00.0000000+00:00</time>
      </trkpt>
      <trkpt lat="48.877497" lon="10.900172">
        <ele>539.2</ele>
        <time>2026-09-01T00:00:00.0000000+00:00</time>
      </trkpt>
      <trkpt lat="48.877585" lon="10.900257">
        <ele>540.45</ele>
        <time>2026-09-01T00:00:00.0000000+00:00</time>
      </trkpt>
      <trkpt lat="48.877791" lon="10.901784">
        <ele>547.52</ele>
        <time>2026-09-01T00:00:00.0000000+00:00</time>
      </trkpt>
      <trkpt lat="48.877965" lon="10.902597">
        <ele>547.93</ele>
        <time>2026-09-01T00:00:00.0000000+00:00</time>
      </trkpt>
      <trkpt lat="48.877942" lon="10.902684">
        <ele>547.74</ele>
        <time>2026-09-01T00:00:00.0000000+00:00</time>
      </trkpt>
      <trkpt lat="48.877887" lon="10.902706">
        <ele>547.22</ele>
        <time>2026-09-01T00:00:00.0000000+00:00</time>
      </trkpt>
      <trkpt lat="48.874162" lon="10.902774">
        <ele>534.87</ele>
        <time>2026-09-01T00:00:00.0000000+00:00</time>
      </trkpt>
      <trkpt lat="48.874151" lon="10.905033">
        <ele>539.22</ele>
        <time>2026-09-01T00:00:00.0000000+00:00</time>
      </trkpt>
      <trkpt lat="48.873904" lon="10.904871">
        <ele>537.54</ele>
        <time>2026-09-01T00:00:00.0000000+00:00</time>
      </trkpt>
      <trkpt lat="48.873627" lon="10.904796">
        <ele>535.79</ele>
        <time>2026-09-01T00:00:00.0000000+00:00</time>
      </trkpt>
      <trkpt lat="48.873343" lon="10.904785">
        <ele>533.81</ele>
        <time>2026-09-01T00:00:00.0000000+00:00</time>
      </trkpt>
      <trkpt lat="48.873422" lon="10.910635">
        <ele>543.95</ele>
        <time>2026-09-01T00:00:00.0000000+00:00</time>
      </trkpt>
      <trkpt lat="48.873427" lon="10.912203">
        <ele>541.9</ele>
        <time>2026-09-01T00:00:00.0000000+00:00</time>
      </trkpt>
      <trkpt lat="48.873377" lon="10.913825">
        <ele>541.35</ele>
        <time>2026-09-01T00:00:00.0000000+00:00</time>
      </trkpt>
      <trkpt lat="48.872778" lon="10.917068">
        <ele>509.46</ele>
        <time>2026-09-01T00:00:00.0000000+00:00</time>
      </trkpt>
      <trkpt lat="48.872754" lon="10.918827">
        <ele>501.53</ele>
        <time>2026-09-01T00:00:00.0000000+00:00</time>
      </trkpt>
      <trkpt lat="48.872053" lon="10.922429">
        <ele>490.54</ele>
        <time>2026-09-01T00:00:00.0000000+00:00</time>
      </trkpt>
      <trkpt lat="48.870444" lon="10.921446">
        <ele>511.14</ele>
        <time>2026-09-01T00:00:00.0000000+00:00</time>
      </trkpt>
      <trkpt lat="48.870354" lon="10.921486">
        <ele>512.3</ele>
        <time>2026-09-01T00:00:00.0000000+00:00</time>
      </trkpt>
      <trkpt lat="48.870107" lon="10.921747">
        <ele>513.76</ele>
        <time>2026-09-01T00:00:00.0000000+00:00</time>
      </trkpt>
      <trkpt lat="48.869748" lon="10.922271">
        <ele>509.54</ele>
        <time>2026-09-01T00:00:00.0000000+00:00</time>
      </trkpt>
      <trkpt lat="48.869542" lon="10.922405">
        <ele>510.03</ele>
        <time>2026-09-01T00:00:00.0000000+00:00</time>
      </trkpt>
      <trkpt lat="48.869296" lon="10.922381">
        <ele>513.6</ele>
        <time>2026-09-01T00:00:00.0000000+00:00</time>
      </trkpt>
      <trkpt lat="48.869146" lon="10.922455">
        <ele>515.7</ele>
        <time>2026-09-01T00:00:00.0000000+00:00</time>
      </trkpt>
      <trkpt lat="48.869046" lon="10.922464">
        <ele>517.88</ele>
        <time>2026-09-01T00:00:00.0000000+00:00</time>
      </trkpt>
      <trkpt lat="48.868561" lon="10.92229">
        <ele>530.75</ele>
        <time>2026-09-01T00:00:00.0000000+00:00</time>
      </trkpt>
      <trkpt lat="48.86835" lon="10.922086">
        <ele>535.12</ele>
        <time>2026-09-01T00:00:00.0000000+00:00</time>
      </trkpt>
      <trkpt lat="48.868205" lon="10.922032">
        <ele>535.55</ele>
        <time>2026-09-01T00:00:00.0000000+00:00</time>
      </trkpt>
      <trkpt lat="48.867788" lon="10.921996">
        <ele>535.67</ele>
        <time>2026-09-01T00:00:00.0000000+00:00</time>
      </trkpt>
      <trkpt lat="48.867731" lon="10.921945">
        <ele>535.61</ele>
        <time>2026-09-01T00:00:00.0000000+00:00</time>
      </trkpt>
      <trkpt lat="48.867722" lon="10.916306">
        <ele>536.17</ele>
        <time>2026-09-01T00:00:00.0000000+00:00</time>
      </trkpt>
      <trkpt lat="48.867932" lon="10.916501">
        <ele>537.93</ele>
        <time>2026-09-01T00:00:00.0000000+00:00</time>
      </trkpt>
      <trkpt lat="48.86809" lon="10.916561">
        <ele>539.48</ele>
        <time>2026-09-01T00:00:00.0000000+00:00</time>
      </trkpt>
      <trkpt lat="48.868319" lon="10.916582">
        <ele>541.87</ele>
        <time>2026-09-01T00:00:00.0000000+00:00</time>
      </trkpt>
      <trkpt lat="48.87073" lon="10.915982">
        <ele>543.08</ele>
        <time>2026-09-01T00:00:00.0000000+00:00</time>
      </trkpt>
      <trkpt lat="48.87103" lon="10.915833">
        <ele>541.52</ele>
        <time>2026-09-01T00:00:00.0000000+00:00</time>
      </trkpt>
      <trkpt lat="48.87125" lon="10.915593">
        <ele>540.8</ele>
        <time>2026-09-01T00:00:00.0000000+00:00</time>
      </trkpt>
      <trkpt lat="48.871467" lon="10.915279">
        <ele>540.77</ele>
        <time>2026-09-01T00:00:00.0000000+00:00</time>
      </trkpt>
      <trkpt lat="48.871601" lon="10.914929">
        <ele>542.02</ele>
        <time>2026-09-01T00:00:00.0000000+00:00</time>
      </trkpt>
      <trkpt lat="48.871689" lon="10.914568">
        <ele>544.37</ele>
        <time>2026-09-01T00:00:00.0000000+00:00</time>
      </trkpt>
      <trkpt lat="48.871746" lon="10.913871">
        <ele>547.42</ele>
        <time>2026-09-01T00:00:00.0000000+00:00</time>
      </trkpt>
      <trkpt lat="48.871764" lon="10.911093">
        <ele>540.48</ele>
        <time>2026-09-01T00:00:00.0000000+00:00</time>
      </trkpt>
      <trkpt lat="48.871553" lon="10.910044">
        <ele>536.92</ele>
        <time>2026-09-01T00:00:00.0000000+00:00</time>
      </trkpt>
      <trkpt lat="48.870942" lon="10.907682">
        <ele>522.64</ele>
        <time>2026-09-01T00:00:00.0000000+00:00</time>
      </trkpt>
      <trkpt lat="48.870429" lon="10.906006">
        <ele>514.27</ele>
        <time>2026-09-01T00:00:00.0000000+00:00</time>
      </trkpt>
      <trkpt lat="48.869991" lon="10.90583">
        <ele>511.49</ele>
        <time>2026-09-01T00:00:00.0000000+00:00</time>
      </trkpt>
      <trkpt lat="48.869573" lon="10.905535">
        <ele>509.23</ele>
        <time>2026-09-01T00:00:00.0000000+00:00</time>
      </trkpt>
      <trkpt lat="48.8674" lon="10.903892">
        <ele>497.87</ele>
        <time>2026-09-01T00:00:00.0000000+00:00</time>
      </trkpt>
      <trkpt lat="48.867312" lon="10.903705">
        <ele>498.03</ele>
        <time>2026-09-01T00:00:00.0000000+00:00</time>
      </trkpt>
      <trkpt lat="48.867231" lon="10.90362">
        <ele>497.87</ele>
        <time>2026-09-01T00:00:00.0000000+00:00</time>
      </trkpt>
      <trkpt lat="48.866656" lon="10.903213">
        <ele>495.42</ele>
        <time>2026-09-01T00:00:00.0000000+00:00</time>
      </trkpt>
      <trkpt lat="48.866793" lon="10.902526">
        <ele>495.87</ele>
        <time>2026-09-01T00:00:00.0000000+00:00</time>
      </trkpt>
      <trkpt lat="48.866271" lon="10.902929">
        <ele>493.57</ele>
        <time>2026-09-01T00:00:00.0000000+00:00</time>
      </trkpt>
      <trkpt lat="48.865896" lon="10.90307">
        <ele>491.61</ele>
        <time>2026-09-01T00:00:00.0000000+00:00</time>
      </trkpt>
    </trkseg>
  </trk>
</gpx>